1495742400.21,38580,14.31,73776.0,-1.31,-1.91,-1.95,0,*51
1495742401.47,38581,14.31,73776.5,-1.31,-1.95,-1.95,0,*54
1495742402.74,38582,14.31,73780.8,-1.27,-2.03,-2.03,0,*50
1495742403.99,38583,14.31,73778.3,-1.29,-2.03,-2.03,0,*5F
1495742405.23,38584,14.31,73780.3,-1.29,-2.03,-2.03,0,*58
1495742406.48,38585,14.31,73786.3,-1.29,-2.03,-1.99,0,*59
1495742407.74,38586,14.31,73786.0,-1.29,-1.99,-1.99,0,*5A
1495742409.0,38587,14.31,73788.8,-1.31,-1.95,-1.95,0,*52
1495742410.24,38588,14.31,73790.3,-1.29,-2.03,-2.03,0,*54
1495742411.49,38589,14.31,73792.3,-1.29,-2.03,-2.03,0,*55
1495742412.74,38590,14.31,73792.5,-1.29,-2.03,-2.03,0,*5D
1495742413.99,38591,14.31,73808.8,-1.29,-1.99,-1.99,0,*5C
1495742415.24,38592,14.31,73796.3,-1.29,-2.03,-1.99,0,*5F
1495742416.49,38593,14.31,73798.0,-1.29,-1.99,-1.99,0,*5E
1495742417.75,38594,14.31,73790.0,-1.29,-1.99,-1.99,0,*59
1495742419.02,38595,14.31,73790.0,-1.27,-1.91,-1.91,0,*56
1495742420.27,38596,14.31,73788.8,-1.29,-1.99,-1.99,0,*5B
1495742421.51,38597,14.31,73794.0,-1.29,-1.91,-1.99,0,*52
1495742422.76,38598,14.31,73798.0,-1.29,-1.91,-1.91,0,*55
1495742424.0,38599,14.31,73792.0,-1.29,-2.03,-2.03,0,*54
1495742425.26,38600,14.31,73796.3,-1.29,-1.99,-1.99,0,*57
1495742426.5,38601,14.31,73810.0,-1.29,-2.03,-1.91,0,*5E
1495742427.75,38602,14.31,73800.8,-1.29,-1.99,-1.91,0,*5D
1495742429.0,38603,14.31,73802.8,-1.29,-1.87,-1.87,0,*54
1495742430.24,38604,14.31,73806.0,-1.29,-1.91,-2.03,0,*5B
1495742431.52,38605,14.31,73804.8,-1.27,-1.99,-1.91,0,*54
1495742432.76,38606,14.31,73798.8,-1.29,-1.91,-1.91,0,*51
1495742434.03,38607,14.31,73802.3,-1.27,-1.87,-1.87,0,*5E
1495742435.27,38608,14.31,73802.8,-1.29,-1.91,-1.91,0,*5F
1495742436.54,38609,14.31,73802.3,-1.27,-1.87,-1.87,0,*50
1495742437.79,38610,14.31,73796.0,-1.29,-1.87,-1.87,0,*56
1495742439.03,38611,14.31,73790.8,-1.29,-1.91,-1.87,0,*50
1495742440.3,38612,14.31,73788.8,-1.27,-1.91,-1.91,0,*5A
1495742441.58,38613,14.31,73796.5,-1.27,-1.99,-1.91,0,*53
1495742442.86,38614,14.31,73800.5,-1.27,-1.99,-1.99,0,*5C
1495742444.14,38615,14.31,73796.3,-1.27,-1.99,-1.99,0,*5D
1495742445.4,38616,14.31,73794.5,-1.27,-1.91,-1.91,0,*5E
1495742446.68,38617,14.31,73798.8,-1.27,-2.03,-1.99,0,*5F
1495742447.96,38618,14.31,73792.8,-1.27,-1.99,-1.99,0,*50
1495742449.21,38619,14.31,73794.0,-1.29,-1.99,-1.99,0,*5F
1495742450.47,38620,14.31,73794.0,-1.29,-1.99,-1.99,0,*55
1495742451.72,38621,14.31,73798.8,-1.29,-2.03,-1.99,0,*54
1495742452.99,38622,14.31,73792.5,-1.27,-2.03,-2.03,0,*59
1495742454.24,38623,14.31,73796.8,-1.29,-1.99,-1.99,0,*56
1495742455.5,38624,14.31,73798.8,-1.29,-1.99,-1.99,0,*51
1495742456.77,38625,14.31,73796.3,-1.27,-2.03,-2.03,0,*5E
1495742458.05,38626,14.31,73802.5,-1.27,-1.99,-2.03,0,*5D
1495742459.29,38627,14.31,73808.8,-1.25,-1.87,-1.87,0,*5E
1495742460.54,38628,14.31,73810.0,-1.29,-1.99,-1.91,0,*55
1495742461.78,38629,14.31,73802.0,-1.29,-2.03,-2.03,0,*5C
1495742463.04,38630,14.31,73802.3,-1.29,-1.99,-1.99,0,*54
1495742464.31,38631,14.31,73798.5,-1.27,-2.07,-2.03,0,*5F
1495742465.56,38632,14.31,73796.0,-1.29,-2.07,-2.07,0,*56
1495742466.78,38633,14.31,73798.0,-1.29,-2.07,-2.15,0,*54
1495742468.06,38634,14.31,73802.3,-1.27,-2.07,-2.07,0,*5E
1495742469.31,38635,14.31,73798.8,-1.29,-2.03,-1.99,0,*51
1495742470.5,38636,14.31,73802.5,-1.29,-2.19,-2.15,0,*5E
1495742471.72,38637,14.31,73800.3,-1.29,-2.07,-2.15,0,*50
1495742472.99,38638,14.31,73802.3,-1.27,-2.07,-2.03,0,*56
1495742474.24,38639,14.31,73796.3,-1.29,-2.03,-2.03,0,*5D
1495742475.49,38640,14.31,73794.3,-1.29,-2.03,-2.03,0,*53
1495742476.73,38641,14.31,73802.3,-1.29,-2.07,-2.03,0,*56
1495742477.98,38642,14.31,73806.0,-1.29,-2.07,-2.07,0,*51
1495742479.26,38643,14.31,73806.8,-1.31,-2.11,-2.11,0,*59
1495742480.53,38644,14.31,73806.3,-1.31,-2.11,-2.11,0,*5E
1495742481.8,38645,14.31,73806.0,-1.31,-2.11,-2.11,0,*5F
1495742483.08,38646,14.31,73808.3,-1.31,-2.07,-2.07,0,*5C
1495742484.32,38647,14.31,73810.3,-1.29,-2.03,-2.03,0,*54
1495742485.57,38648,14.31,73816.5,-1.29,-1.99,-2.03,0,*5B
1495742486.79,38649,14.31,73806.0,-1.29,-2.15,-2.07,0,*59
1495742488.04,38650,14.38,73810.8,-1.29,-2.07,-2.07,0,*52
1495742489.29,38651,14.31,73806.3,-1.29,-2.07,-2.07,0,*53
1495742490.54,38652,14.31,73810.3,-1.29,-2.07,-2.07,0,*50
1495742491.8,38653,14.31,73804.5,-1.29,-1.99,-2.07,0,*55
1495742493.05,38654,14.31,73802.0,-1.29,-1.99,-2.03,0,*56
1495742494.29,38655,14.31,73806.3,-1.29,-2.03,-2.03,0,*57
1495742495.54,38656,14.31,73812.5,-1.29,-2.03,-1.99,0,*54
1495742496.8,38657,14.31,73822.5,-1.29,-1.99,-1.99,0,*55
1495742498.08,38658,14.31,73818.8,-1.27,-1.99,-1.99,0,*54
1495742499.3,38659,14.31,73816.3,-1.29,-1.87,-1.79,0,*5A
1495742500.54,38660,14.31,73812.3,-1.29,-1.91,-1.91,0,*51
1495742501.79,38661,14.31,73808.0,-1.29,-1.99,-1.99,0,*50
1495742503.05,38662,14.31,73804.3,-1.29,-1.99,-1.99,0,*53
1495742504.32,38663,14.31,73814.5,-1.27,-1.99,-1.99,0,*5C
1495742505.6,38664,14.31,73808.8,-1.27,-2.03,-2.03,0,*5B
1495742506.84,38665,14.31,73808.8,-1.29,-2.03,-2.03,0,*54
1495742508.09,38666,14.31,73812.8,-1.29,-1.99,-2.03,0,*57
1495742509.35,38667,14.31,73822.0,-1.29,-2.03,-1.99,0,*56
1495742510.6,38668,14.31,73826.0,-1.29,-1.99,-2.03,0,*59
1495742511.84,38669,14.31,73826.8,-1.29,-2.03,-1.91,0,*50
1495742513.06,38670,14.31,73820.5,-1.27,-2.15,-2.15,0,*5E
1495742514.25,38671,14.31,73822.0,-1.29,-2.27,-2.19,0,*5C
1495742515.44,38672,14.31,73816.5,-1.29,-2.31,-2.27,0,*55
1495742516.63,38673,14.31,73810.5,-1.29,-2.19,-2.19,0,*53
1495742517.88,38674,14.31,73810.3,-1.29,-2.07,-2.07,0,*54
1495742519.1,38675,14.31,73798.5,-1.29,-2.15,-2.07,0,*56
1495742520.35,38676,14.31,73796.3,-1.29,-2.07,-2.07,0,*56
1495742521.63,38677,14.31,73790.5,-1.31,-2.11,-2.07,0,*59
1495742522.9,38678,14.31,73784.5,-1.31,-2.07,-2.03,0,*55
1495742524.17,38679,14.31,73786.3,-1.31,-2.03,-2.07,0,*54
1495742525.45,38680,14.31,73790.8,-1.31,-2.07,-2.03,0,*52
1495742526.72,38681,14.31,73786.0,-1.31,-2.07,-2.03,0,*53
1495742527.96,38682,14.31,73786.3,-1.29,-2.03,-2.03,0,*5D
1495742529.21,38683,14.31,73782.8,-1.29,-2.03,-2.03,0,*5C
1495742530.46,38684,14.31,73788.3,-1.29,-1.99,-1.91,0,*53
1495742531.73,38685,14.31,73786.8,-1.31,-2.03,-2.03,0,*53
1495742532.98,38686,14.31,73774.5,-1.29,-2.03,-1.99,0,*59
1495742534.22,38687,14.31,73764.5,-1.29,-1.87,-1.91,0,*5F
1495742535.47,38688,14.31,73774.0,-1.29,-1.99,-1.91,0,*5F
1495742536.72,38689,14.31,73778.5,-1.29,-1.87,-1.91,0,*51
1495742537.96,38690,14.31,73788.3,-1.29,-1.91,-1.91,0,*5E
1495742539.21,38691,14.31,73784.5,-1.29,-1.91,-1.99,0,*57
1495742540.45,38692,14.31,73784.0,-1.29,-1.91,-1.87,0,*5B
1495742541.69,38693,14.31,73778.3,-1.29,-1.91,-1.87,0,*5A
1495742542.89,38694,14.31,73774.8,-1.29,-1.79,-1.79,0,*5A
1495742544.13,38695,14.31,73792.3,-1.29,-1.91,-1.87,0,*5C
1495742545.37,38696,14.31,73808.8,-1.29,-1.87,-1.87,0,*58
1495742546.62,38697,14.31,73806.8,-1.27,-1.79,-1.91,0,*51
1495742547.89,38698,14.31,73792.0,-1.27,-1.91,-1.87,0,*5F
1495742549.11,38699,14.31,73782.5,-1.27,-1.79,-1.79,0,*59
1495742550.38,38700,14.31,73758.3,-1.27,-1.99,-1.91,0,*50
1495742551.65,38701,14.31,73772.8,-1.27,-1.91,-1.91,0,*59
1495742552.9,38702,14.31,73792.0,-1.29,-2.03,-2.03,0,*54
1495742554.18,38703,14.31,73790.5,-1.27,-1.99,-1.99,0,*5B
1495742555.42,38704,14.31,73806.0,-1.25,-1.87,-1.87,0,*5E
1495742556.66,38705,14.31,73804.3,-1.25,-2.11,-2.11,0,*5F
1495742557.91,38706,14.31,73806.3,-1.29,-2.51,-2.55,0,*54
1495742559.16,38707,14.31,73798.3,-1.29,-2.67,-2.67,0,*51
1495742560.34,38708,14.31,73782.3,-1.29,-2.43,-2.43,0,*5E
1495742561.54,38709,14.31,73780.3,-1.29,-2.31,-2.27,0,*58
1495742562.76,38710,14.31,73780.5,-1.29,-2.19,-2.07,0,*58
1495742564.01,38711,14.31,73782.0,-1.29,-2.07,-2.07,0,*56
1495742565.26,38712,14.38,73794.0,-1.29,-2.03,-2.07,0,*51
1495742566.53,38713,14.31,73784.0,-1.31,-2.11,-2.11,0,*5D
1495742567.75,38714,14.31,73780.5,-1.27,-2.31,-2.27,0,*5A
1495742568.94,38715,14.31,73776.0,-1.29,-2.19,-2.19,0,*52
1495742570.13,38716,14.31,73784.0,-1.29,-2.19,-2.19,0,*51
1495742571.38,38717,14.31,73796.8,-1.29,-2.03,-2.03,0,*50
1495742572.65,38718,14.31,73794.5,-1.31,-2.07,-2.07,0,*56
1495742573.84,38719,14.31,73798.3,-1.29,-2.15,-2.15,0,*5E
1495742575.09,38720,14.31,73804.0,-1.29,-2.07,-2.07,0,*54
1495742576.28,38721,14.31,73798.0,-1.29,-2.15,-2.15,0,*55
1495742577.47,38722,14.31,73788.5,-1.29,-2.27,-2.19,0,*5B
1495742578.69,38723,14.31,73786.8,-1.31,-2.23,-2.19,0,*57
1495742579.96,38724,14.31,73788.0,-1.31,-2.11,-2.11,0,*59
1495742581.21,38725,14.31,73780.8,-1.29,-2.03,-2.03,0,*51
1495742582.46,38726,14.31,73788.0,-1.29,-1.99,-1.99,0,*52
1495742583.71,38727,14.31,73786.0,-1.29,-2.03,-1.99,0,*53
1495742584.96,38728,14.31,73800.3,-1.29,-1.99,-2.03,0,*5C
1495742586.22,38729,14.31,73792.5,-1.29,-1.99,-1.99,0,*5D
1495742587.5,38730,14.31,73796.3,-1.27,-1.99,-1.99,0,*5B
1495742588.74,38731,14.31,73800.0,-1.29,-1.91,-1.99,0,*5C
1495742589.98,38732,14.31,73798.5,-1.29,-1.91,-1.91,0,*57
1495742591.23,38733,14.31,73796.8,-1.29,-1.87,-1.91,0,*51
1495742592.48,38734,14.31,73796.0,-1.29,-1.87,-1.91,0,*56
1495742593.75,38735,14.31,73796.5,-1.27,-1.99,-1.91,0,*56
1495742595.0,38736,14.31,73796.3,-1.29,-1.99,-2.03,0,*53
1495742596.22,38737,14.31,73792.0,-1.27,-2.19,-2.19,0,*5C
1495742597.49,38738,14.31,73794.0,-1.27,-2.07,-2.07,0,*53
1495742598.75,38739,14.31,73794.5,-1.29,-1.99,-1.99,0,*5C
1495742600.0,38740,14.31,73796.3,-1.29,-1.99,-1.99,0,*52
1495742601.27,38741,14.31,73792.3,-1.27,-1.87,-1.91,0,*5A
1495742602.54,38742,14.31,73794.8,-1.27,-1.87,-1.91,0,*59
1495742603.79,38743,14.31,73800.0,-1.29,-1.87,-1.87,0,*51
1495742605.06,38744,14.31,73798.0,-1.27,-1.91,-1.91,0,*58
1495742606.33,38745,14.31,73794.3,-1.27,-1.87,-1.87,0,*59
1495742607.57,38746,14.31,73798.8,-1.29,-1.91,-1.91,0,*54
1495742608.85,38747,14.31,73806.5,-1.27,-1.99,-1.99,0,*5B
1495742610.1,38748,14.31,73800.3,-1.29,-1.99,-1.87,0,*55
1495742611.34,38749,14.31,73806.5,-1.25,-1.95,-1.87,0,*54
1495742612.61,38750,14.31,73808.0,-1.27,-1.91,-1.87,0,*5A
1495742613.88,38751,14.31,73800.8,-1.27,-1.99,-1.91,0,*54
1495742615.16,38752,14.31,73802.0,-1.27,-1.99,-1.99,0,*5F
1495742616.41,38753,14.31,73796.0,-1.25,-1.87,-1.87,0,*5C
1495742617.65,38754,14.31,73802.3,-1.25,-1.83,-1.87,0,*5F
1495742618.89,38755,14.31,73798.5,-1.25,-1.83,-1.87,0,*5E
1495742620.13,38756,14.31,73804.3,-1.25,-1.87,-1.95,0,*5A
1495742621.37,38757,14.31,73800.3,-1.25,-1.87,-1.87,0,*58
1495742622.61,38758,14.31,73802.3,-1.25,-1.87,-1.87,0,*57
1495742623.85,38759,14.31,73798.3,-1.25,-1.87,-1.87,0,*56
1495742625.12,38760,14.31,73802.3,-1.27,-1.91,-1.91,0,*5E
1495742626.37,38761,14.38,73808.0,-1.25,-1.87,-1.87,0,*5D
1495742627.6,38762,14.31,73810.0,-1.25,-1.95,-1.95,0,*5E
1495742628.83,38763,14.31,73814.3,-1.25,-1.87,-1.95,0,*5C
1495742630.07,38764,14.31,73808.5,-1.25,-1.95,-1.87,0,*5B
1495742631.31,38765,14.31,73808.8,-1.25,-1.95,-1.95,0,*59
1495742632.56,38766,14.31,73806.3,-1.25,-1.99,-1.99,0,*5A
1495742633.81,38767,14.31,73804.0,-1.25,-1.99,-1.99,0,*5B
1495742635.05,38768,14.31,73808.0,-1.25,-1.95,-1.83,0,*53
1495742636.32,38769,14.31,73802.5,-1.23,-1.95,-1.99,0,*5F
1495742637.55,38770,14.31,73800.3,-1.25,-1.95,-1.95,0,*5D
1495742638.77,38771,14.31,73796.8,-1.25,-2.11,-2.15,0,*58
1495742640.02,38772,14.31,73794.3,-1.25,-2.11,-2.11,0,*5F
1495742641.26,38773,14.31,73792.8,-1.25,-2.11,-2.11,0,*5E
1495742642.51,38774,14.31,73792.5,-1.25,-2.11,-2.11,0,*59
1495742643.7,38775,14.31,73794.3,-1.25,-2.15,-2.15,0,*58
1495742644.94,38776,14.31,73796.8,-1.25,-2.11,-2.11,0,*5B
1495742646.19,38777,14.31,73796.8,-1.25,-2.03,-1.99,0,*5A
1495742647.46,38778,14.31,73796.5,-1.27,-2.03,-2.03,0,*57
1495742648.68,38779,14.31,73790.5,-1.27,-2.15,-2.15,0,*56
1495742649.9,38780,14.31,73790.3,-1.27,-2.15,-2.15,0,*50
1495742651.15,38781,14.31,73790.0,-1.27,-2.15,-2.07,0,*52
1495742652.4,38782,14.31,73786.0,-1.29,-2.03,-2.07,0,*58
1495742653.67,38783,14.31,73792.5,-1.27,-2.03,-2.03,0,*53
1495742654.94,38784,14.31,73794.0,-1.27,-2.03,-2.03,0,*54
1495742656.22,38785,14.31,73792.5,-1.27,-2.03,-2.03,0,*55
1495742657.5,38786,14.38,73800.5,-1.27,-1.99,-1.99,0,*56
1495742658.77,38787,14.31,73800.5,-1.27,-2.03,-1.99,0,*57
1495742660.05,38788,14.31,73800.3,-1.27,-2.03,-1.99,0,*58
1495742661.29,38789,14.31,73800.8,-1.25,-1.99,-1.95,0,*57
1495742662.53,38790,14.31,73802.5,-1.25,-1.99,-1.95,0,*5F
1495742663.78,38791,14.31,73800.0,-1.25,-1.99,-1.99,0,*52
1495742665.01,38792,14.31,73794.5,-1.25,-1.95,-1.95,0,*51
1495742666.25,38793,14.31,73796.5,-1.25,-1.87,-1.87,0,*50
1495742667.49,38794,14.31,73798.8,-1.25,-1.95,-1.95,0,*57
1495742668.76,38795,14.31,73800.3,-1.23,-1.99,-1.95,0,*5C
1495742669.99,38796,14.31,73800.8,-1.25,-1.95,-1.95,0,*55
1495742671.22,38797,14.31,73796.3,-1.25,-1.95,-1.95,0,*54
1495742672.46,38798,14.31,73796.0,-1.25,-1.95,-1.87,0,*58
1495742673.74,38799,14.31,73794.0,-1.23,-1.99,-1.99,0,*5C
1495742674.98,38800,14.31,73794.5,-1.25,-1.99,-1.95,0,*59
1495742676.22,38801,14.31,73790.5,-1.25,-1.99,-1.95,0,*58
1495742677.46,38802,14.31,73784.5,-1.25,-1.95,-1.99,0,*5B
1495742678.74,38803,14.31,73788.5,-1.27,-1.99,-2.03,0,*54
1495742680.01,38804,14.31,73786.3,-1.27,-1.99,-2.03,0,*53
1495742681.25,38805,14.31,73784.8,-1.25,-1.99,-1.95,0,*5C
1495742682.51,38806,14.31,73796.0,-1.25,-1.99,-1.99,0,*53
1495742683.76,38807,14.31,73794.3,-1.25,-1.99,-1.99,0,*52
1495742685.01,38808,14.31,73792.8,-1.25,-1.99,-1.99,0,*5D
1495742686.25,38809,14.31,73794.5,-1.25,-2.03,-1.99,0,*5C
1495742687.5,38810,14.31,73802.8,-1.25,-1.99,-1.99,0,*54
1495742688.76,38811,14.31,73794.3,-1.23,-1.95,-1.95,0,*53
1495742690.01,38812,14.31,73798.8,-1.25,-1.99,-1.99,0,*56
1495742691.25,38813,14.31,73796.0,-1.25,-1.95,-1.95,0,*57
1495742692.48,38814,14.38,73798.5,-1.25,-1.83,-1.95,0,*57
1495742693.76,38815,14.31,73794.5,-1.23,-1.99,-1.87,0,*58
1495742694.99,38816,14.31,73794.8,-1.25,-1.95,-1.95,0,*52
1495742696.23,38817,14.31,73792.8,-1.25,-1.95,-1.95,0,*53
1495742697.46,38818,14.31,73788.5,-1.25,-1.95,-1.87,0,*5F
1495742698.73,38819,14.31,73790.8,-1.23,-1.87,-1.95,0,*58
1495742699.96,38820,14.31,73792.8,-1.25,-1.95,-1.95,0,*57
1495742701.24,38821,14.31,73798.0,-1.23,-1.99,-1.87,0,*5F
1495742702.51,38822,14.31,73792.0,-1.23,-1.87,-1.87,0,*53
1495742703.75,38823,14.31,73782.0,-1.25,-1.87,-1.87,0,*54
1495742704.99,38824,14.31,73798.8,-1.25,-1.99,-1.95,0,*5F
1495742706.23,38825,14.31,73798.3,-1.25,-1.87,-1.95,0,*51
1495742707.48,38826,14.31,73794.0,-1.25,-1.99,-1.99,0,*51
1495742708.75,38827,14.31,73808.0,-1.23,-1.95,-1.99,0,*5A
1495742710.02,38828,14.38,73816.5,-1.23,-1.99,-1.95,0,*55
1495742711.3,38829,14.31,73806.3,-1.23,-1.99,-1.99,0,*58
1495742712.57,38830,14.31,73802.5,-1.23,-1.99,-1.95,0,*5C
1495742713.82,38831,14.31,73802.8,-1.25,-1.99,-1.99,0,*57
1495742715.06,38832,14.31,73790.8,-1.25,-1.95,-1.99,0,*58
1495742716.34,38833,14.31,73784.3,-1.23,-1.99,-1.99,0,*53
1495742717.59,38834,14.31,73786.8,-1.25,-1.99,-2.03,0,*52
1495742718.86,38835,14.31,73788.3,-1.23,-2.03,-2.03,0,*55
1495742720.11,38836,14.31,73790.0,-1.25,-1.95,-1.99,0,*5C
1495742721.38,38837,14.31,73796.8,-1.23,-1.87,-1.99,0,*58
1495742722.66,38838,14.31,73794.3,-1.23,-1.99,-1.99,0,*58
1495742723.94,38839,14.31,73792.3,-1.23,-1.99,-1.99,0,*59
1495742725.19,38840,14.31,73794.8,-1.25,-1.99,-1.99,0,*51
1495742726.44,38841,14.31,73796.5,-1.25,-1.99,-1.99,0,*50
1495742727.69,38842,14.31,73796.3,-1.25,-1.99,-1.99,0,*53
1495742728.97,38843,14.31,73804.3,-1.23,-1.99,-2.03,0,*54
1495742730.21,38844,14.31,73788.3,-1.25,-1.99,-1.95,0,*59
1495742731.45,38845,14.31,73798.5,-1.25,-1.95,-1.99,0,*58
1495742732.7,38846,14.31,73814.8,-1.25,-1.99,-1.99,0,*57
1495742733.94,38847,14.31,73818.0,-1.25,-1.95,-1.99,0,*5A
1495742735.19,38848,14.31,73808.5,-1.25,-1.99,-1.99,0,*59
1495742736.41,38849,14.31,73806.3,-1.25,-2.11,-2.15,0,*5C
1495742737.63,38850,14.31,73808.3,-1.25,-2.15,-2.03,0,*57
1495742738.87,38851,14.31,73786.5,-1.25,-2.03,-2.03,0,*51
1495742740.12,38852,14.31,73790.8,-1.25,-2.03,-2.03,0,*52
1495742741.4,38853,14.31,73798.0,-1.23,-1.99,-1.99,0,*55
1495742742.64,38854,14.31,73798.0,-1.25,-2.03,-2.03,0,*54
1495742743.89,38855,14.31,73796.0,-1.25,-1.99,-1.99,0,*55
1495742745.13,38856,14.31,73802.5,-1.25,-2.03,-2.03,0,*56
1495742746.38,38857,14.31,73798.0,-1.25,-2.03,-2.03,0,*57
1495742747.61,38858,14.31,73788.0,-1.25,-1.95,-1.95,0,*58
1495742748.85,38859,14.31,73782.5,-1.25,-1.95,-1.99,0,*55
1495742750.08,38860,14.31,73778.0,-1.25,-1.95,-1.95,0,*53
1495742751.33,38861,14.31,73780.8,-1.25,-1.95,-1.99,0,*5E
1495742752.57,38862,14.31,73782.3,-1.25,-1.99,-1.95,0,*5D
1495742753.85,38863,14.31,73790.3,-1.23,-1.99,-1.99,0,*56
1495742755.1,38864,14.31,73796.5,-1.25,-1.99,-1.99,0,*57
1495742756.35,38865,14.31,73780.8,-1.25,-1.99,-1.99,0,*56
1495742757.6,38866,14.31,73788.8,-1.25,-1.99,-1.99,0,*55
1495742758.85,38867,14.31,73788.8,-1.25,-1.99,-1.99,0,*54
1495742760.09,38868,14.31,73790.5,-1.25,-1.95,-1.99,0,*57
1495742761.34,38869,14.31,73792.8,-1.25,-1.99,-1.99,0,*5A
1495742762.62,38870,14.31,73790.3,-1.23,-1.99,-1.99,0,*54
1495742763.89,38871,14.31,73794.3,-1.23,-1.99,-1.95,0,*59
1495742765.12,38872,14.31,73794.3,-1.25,-1.95,-1.95,0,*50
1495742766.36,38873,14.31,73786.3,-1.25,-1.87,-1.95,0,*52
1495742767.6,38874,14.31,73792.3,-1.25,-1.95,-1.99,0,*5A
1495742768.88,38875,14.31,73796.5,-1.23,-1.99,-1.99,0,*51
1495742770.15,38876,14.31,73806.8,-1.23,-2.03,-2.03,0,*52
1495742771.4,38877,14.31,73810.5,-1.25,-2.03,-2.03,0,*55
1495742772.64,38878,14.31,73794.3,-1.25,-2.11,-2.03,0,*59
1495742773.89,38879,14.31,73788.3,-1.25,-2.11,-2.03,0,*58
1495742775.13,38880,14.31,73788.8,-1.25,-2.03,-2.03,0,*5D
1495742776.38,38881,14.31,73796.3,-1.25,-2.03,-1.99,0,*5C
1495742777.63,38882,14.31,73800.5,-1.25,-2.03,-1.99,0,*5F
1495742778.87,38883,14.31,73794.5,-1.25,-1.95,-1.99,0,*52
1495742780.11,38884,14.38,73798.8,-1.25,-2.03,-2.11,0,*5A
1495742781.35,38885,14.31,73794.3,-1.25,-2.03,-2.03,0,*58
1495742782.6,38886,14.31,73786.8,-1.25,-1.99,-2.03,0,*5B
1495742783.83,38887,14.31,73796.5,-1.25,-1.95,-1.95,0,*5A
1495742785.08,38888,14.31,73794.8,-1.25,-1.95,-1.99,0,*59
1495742786.33,38889,14.31,73796.3,-1.25,-1.99,-1.99,0,*54
1495742787.58,38890,14.31,73800.0,-1.25,-1.99,-1.99,0,*5C
1495742788.83,38891,14.31,73798.3,-1.25,-1.99,-1.99,0,*5D
1495742790.08,38892,14.31,73810.0,-1.25,-1.99,-1.99,0,*5E
1495742791.3,38893,14.38,73806.5,-1.25,-2.11,-2.23,0,*5E
1495742792.52,38894,14.31,73802.3,-1.25,-2.15,-2.11,0,*5C
1495742793.76,38895,14.31,73796.0,-1.25,-2.03,-2.03,0,*59
1495742795.0,38896,14.31,73788.8,-1.25,-2.11,-2.11,0,*5A
1495742796.25,38897,14.31,73794.8,-1.25,-2.03,-2.03,0,*5B
1495742797.49,38898,14.31,73800.0,-1.25,-2.03,-2.03,0,*54
1495742798.73,38899,14.31,73802.8,-1.25,-2.03,-2.03,0,*55
1495742799.98,38900,14.31,73808.8,-1.25,-2.03,-2.03,0,*54
1495742801.22,38901,14.31,73800.8,-1.25,-2.03,-2.03,0,*55
1495742802.47,38902,14.31,73802.0,-1.25,-2.03,-1.99,0,*56
1495742803.72,38903,14.31,73796.0,-1.25,-2.03,-1.99,0,*57
1495742804.96,38904,14.31,73798.3,-1.25,-2.03,-1.99,0,*50
1495742806.21,38905,14.31,73798.5,-1.25,-2.03,-1.99,0,*51
1495742807.46,38906,14.31,73798.5,-1.25,-2.03,-1.99,0,*52
1495742808.7,38907,14.31,73792.5,-1.25,-2.03,-1.99,0,*53
1495742809.95,38908,14.31,73788.8,-1.25,-2.03,-1.99,0,*5C
1495742811.19,38909,14.31,73792.8,-1.25,-2.03,-2.03,0,*5D
1495742812.47,38910,14.31,73792.8,-1.27,-2.07,-2.03,0,*53
1495742813.71,38911,14.31,73794.0,-1.25,-2.03,-1.99,0,*54
1495742814.96,38912,14.31,73792.8,-1.25,-1.87,-1.99,0,*58
1495742816.21,38913,14.31,73790.0,-1.25,-1.99,-1.99,0,*56
1495742817.45,38914,14.31,73796.3,-1.25,-2.03,-2.03,0,*51
1495742818.7,38915,14.31,73796.0,-1.25,-2.03,-2.03,0,*50
1495742819.94,38916,14.31,73802.5,-1.25,-2.11,-2.03,0,*50
1495742821.19,38917,14.31,73798.3,-1.25,-2.11,-2.03,0,*51
1495742822.38,38918,14.31,73794.8,-1.25,-2.15,-2.15,0,*5D
1495742823.57,38919,14.31,73792.3,-1.25,-2.23,-2.23,0,*5C
1495742824.79,38920,14.31,73796.0,-1.25,-2.11,-2.15,0,*52
1495742826.03,38921,14.31,73802.5,-1.25,-2.03,-2.11,0,*54
1495742827.31,38922,14.31,73800.5,-1.27,-2.07,-2.07,0,*56
1495742828.58,38923,14.31,73802.8,-1.27,-2.07,-2.07,0,*57
1495742829.86,38924,14.31,73802.5,-1.27,-2.07,-2.03,0,*54
1495742831.1,38925,14.31,73802.5,-1.29,-2.07,-2.03,0,*5B
1495742832.32,38926,14.31,73802.8,-1.27,-2.19,-2.15,0,*5E
1495742833.55,38927,14.31,73800.8,-1.27,-2.31,-2.31,0,*53
1495742834.74,38928,14.31,73796.3,-1.29,-2.27,-2.19,0,*5F
1495742835.96,38929,14.31,73794.8,-1.27,-2.31,-2.39,0,*55
1495742837.18,38930,14.31,73786.3,-1.27,-2.31,-2.19,0,*5F
1495742838.4,38931,14.31,73786.0,-1.27,-2.15,-2.19,0,*58
1495742839.65,38932,14.31,73780.3,-1.27,-2.07,-2.15,0,*54
1495742840.87,38933,14.31,73778.8,-1.27,-2.39,-2.31,0,*5E
1495742842.06,38934,14.31,73790.5,-1.29,-2.43,-2.43,0,*5F
1495742843.24,38935,14.31,73800.8,-1.29,-2.39,-2.39,0,*5E
1495742844.49,38936,14.31,73802.8,-1.27,-2.19,-2.07,0,*5C
1495742845.68,38937,14.31,73794.8,-1.29,-2.19,-2.19,0,*5C
1495742846.87,38938,14.31,73788.8,-1.29,-2.39,-2.27,0,*5C
1495742848.11,38939,14.31,73786.0,-1.27,-2.15,-2.07,0,*5F
1495742849.31,38940,14.31,73788.3,-1.29,-2.15,-2.15,0,*5C
1495742850.5,38941,14.31,73794.8,-1.29,-2.19,-2.27,0,*50
1495742851.68,38942,14.31,73788.0,-1.29,-2.19,-2.27,0,*53
1495742852.93,38943,14.31,73790.5,-1.29,-2.07,-2.07,0,*5F
1495742854.18,38944,14.31,73788.8,-1.29,-2.07,-2.07,0,*58
1495742855.43,38945,14.31,73792.8,-1.29,-2.07,-2.07,0,*59
1495742856.68,38946,14.31,73794.0,-1.29,-2.07,-2.07,0,*5A
1495742857.93,38947,14.31,73798.5,-1.29,-2.07,-2.07,0,*5B
1495742859.2,38948,14.31,73804.8,-1.31,-2.11,-2.11,0,*5D
1495742860.48,38949,14.31,73800.0,-1.31,-2.07,-2.07,0,*5C
1495742861.75,38950,14.31,73798.8,-1.31,-2.11,-2.07,0,*53
1495742863.0,38951,14.31,73796.8,-1.29,-2.07,-2.03,0,*58
1495742864.25,38952,14.31,73790.8,-1.29,-2.07,-2.07,0,*5F
1495742865.5,38953,14.31,73792.3,-1.29,-2.07,-2.07,0,*5E
1495742866.75,38954,14.31,73792.0,-1.29,-2.07,-2.07,0,*59
1495742868.0,38955,14.31,73796.0,-1.29,-2.07,-2.07,0,*58
1495742869.25,38956,14.31,73796.8,-1.29,-2.07,-2.07,0,*5B
1495742870.5,38957,14.31,73794.8,-1.29,-2.07,-2.07,0,*5A
1495742871.74,38958,14.31,73798.5,-1.29,-2.07,-2.03,0,*51
1495742873.02,38959,14.31,73794.5,-1.31,-2.11,-2.07,0,*5A
1495742874.3,38960,14.31,73800.3,-1.31,-2.11,-2.07,0,*50
1495742875.54,38961,14.31,73800.5,-1.29,-2.03,-2.03,0,*5F
1495742876.79,38962,14.31,73794.5,-1.29,-2.03,-2.03,0,*5C
1495742878.04,38963,14.31,73802.3,-1.29,-2.03,-2.03,0,*5D
1495742879.28,38964,14.31,73802.8,-1.29,-2.03,-2.03,0,*5A
1495742880.55,38965,14.31,73792.8,-1.27,-2.03,-1.91,0,*5D
1495742881.83,38966,14.31,73794.0,-1.27,-1.99,-1.99,0,*56
1495742883.11,38967,14.31,73792.8,-1.27,-2.03,-2.03,0,*57
1495742884.35,38968,14.31,73802.3,-1.29,-2.03,-2.03,0,*56
1495742885.63,38969,14.31,73796.8,-1.27,-2.03,-2.03,0,*59
1495742886.88,38970,14.31,73798.3,-1.29,-2.03,-2.07,0,*5B
1495742888.13,38971,14.31,73798.0,-1.29,-2.07,-2.07,0,*5E
1495742889.4,38972,14.31,73806.8,-1.27,-2.07,-2.07,0,*53
1495742890.65,38973,14.31,73802.8,-1.27,-2.07,-2.15,0,*51
1495742891.92,38974,14.31,73794.8,-1.27,-2.07,-2.07,0,*55
1495742893.17,38975,14.31,73796.3,-1.29,-2.07,-2.07,0,*5A
1495742894.37,38976,14.31,73812.3,-1.29,-2.15,-2.15,0,*59
1495742895.56,38977,14.31,73796.0,-1.29,-2.15,-2.15,0,*58
1495742896.75,38978,14.31,73802.0,-1.29,-2.15,-2.19,0,*5B
1495742898.0,38979,14.31,73808.0,-1.31,-2.11,-2.23,0,*5E
1495742899.25,38980,14.31,73814.0,-1.29,-2.07,-2.07,0,*50
1495742900.52,38981,14.31,73804.0,-1.31,-2.11,-2.11,0,*58
1495742901.8,38982,14.31,73796.0,-1.31,-2.11,-2.07,0,*5C
1495742903.07,38983,14.31,73798.0,-1.31,-2.11,-2.07,0,*5D
1495742904.35,38984,14.31,73792.8,-1.31,-2.11,-2.07,0,*5A
1495742905.63,38985,14.31,73798.8,-1.35,-2.11,-2.11,0,*58
1495742906.87,38986,14.31,73784.8,-1.31,-2.11,-2.19,0,*57
1495742908.15,38987,14.31,73788.0,-1.31,-2.11,-2.11,0,*5E
1495742909.42,38988,14.31,73792.5,-1.31,-2.11,-2.11,0,*51
1495742910.69,38989,14.31,73784.8,-1.31,-2.11,-2.11,0,*50
1495742911.91,38990,14.38,73788.3,-1.35,-2.23,-2.19,0,*55
1495742913.12,38991,14.31,73788.8,-1.31,-2.19,-2.19,0,*59
1495742914.4,38992,14.31,73802.3,-1.31,-2.11,-2.11,0,*5A
1495742915.67,38993,14.38,73806.3,-1.31,-2.07,-2.11,0,*5C